Weather Roundup
Issued by NWS Chicago, IL

Home | Current Version | Previous Version | Graphics & Text | Print | Product List | Glossary On
Versions: 1 2 3 4 5 6 7 8 9 10 11 12 13 14 15 16 17 18 19 20 21 22 23 24 25 26 27 28 29 30 31 32 33 34 35 36 37 38 39 40 41 42 43 44 45 46 47 48 49 50
000
NZUS59 KLOT 020006
HRRLOT

CHICAGO AREA WEATHER ROUNDUP
NATIONAL WEATHER SERVICE CHICAGO/ROMEOVILLE IL
600 PM CST SUN MAR 01 2015

NOTE: "FAIR" INDICATES FEW OR NO CLOUDS BELOW 12,000 FEET WITH NO
SIGNIFICANT WEATHER AND/OR OBSTRUCTIONS TO VISIBILITY.

* THESE STATIONS ARE NOT UNDER NWS QUALITY CONTROL. THEY ALSO MAY NOT
  REPORT WEATHER SUCH AS PRECIPITATION OR FOG.

ILZ005-006-012>014-019>023-020100-
NORTHEAST ILLINOIS

CITY           SKY/WX    TMP DP  RH WIND       PRES   REMARKS
OHARE          PTCLDY    21  14  74 W12       30.26S WCI   9
6HR MIN TEMP:  21; 6HR MAX TEMP:  25;

MIDWAY         MOCLDY    25  16  68 W14       30.28S WCI  13
6HR MIN TEMP:  24; 6HR MAX TEMP:  27; 6HR PCP: TRACE;

AURORA         CLEAR     20  13  74 SW10      30.29S WCI   9
6HR MIN TEMP:  20; 6HR MAX TEMP:  24;

LANSING*       PTCLDY    22  15  76 W10       30.29R WCI  11
JOLIET*        PTCLDY    20  14  78 W6        30.31R WCI  13
WAUKEGAN       CLEAR     22  14  71 SW7       30.24R WCI  13
6HR MIN TEMP:  22; 6HR MAX TEMP:  26;

DUPAGE AIRPORT CLEAR     21  13  71 W12       30.27S WCI   9
6HR MIN TEMP:  21; 6HR MAX TEMP:  24; 6HR PCP: TRACE;

WHEELING       CLEAR     23  14  68 W10       30.28S WCI  12
6HR MIN TEMP:  22; 6HR MAX TEMP:  27;

KANKAKEE*      PTCLDY    19  15  86 W7        30.32R WCI   9
MORRIS*        CLEAR     18  14  82 W9        30.31R WCI   7
LEWIS AIRPORT* CLEAR     19  14  79 W12       30.29S WCI   7
NORTHERLY IS     N/A     24  16  71 W7          N/A  WCI  16
$$

WIZ051-052-058>065-066-070>072-020100-
SOUTHEAST WISCONSIN

CITY           SKY/WX    TMP DP  RH WIND       PRES   REMARKS
MILWAUKEE      PTCLDY    25  13  60 SW9G20    30.22R WCI  15
6HR MIN TEMP:  23; 6HR MAX TEMP:  28;

KENOSHA*       CLEAR     22  14  71 W14       30.23R WCI   9
RACINE*        CLEAR     23  13  65 W7        30.24S WCI  15
BURLINGTON     PTCLDY    20  14  76 SW10      30.23S WCI   9
WAUKESHA       PTCLDY    21  14  73 SW12G17   30.21S WCI   9
WEST BEND      CLOUDY    27  16  63 SW10      30.18S WCI  17
$$

INZ001>003-010>013-019-020-020100-
NORTHWEST INDIANA

CITY           SKY/WX    TMP DP  RH WIND       PRES   REMARKS
GARY*          MOCLDY    25  14  63 W12       30.29R WCI  14
MICHIGAN CITY* NOT AVBL
RENSSELAER*    NOT AVBL
VALPARAISO     MOCLDY    21  16  81 SW10      30.27F WCI  10
$$

LMZ740>746-020100-
SOUTHERN LAKE MICHIGAN

STATION/POSITION TIME  SKY/WX   TEMP WIND        PRES    VSBY
                                AIR  DIR/SP/G
                 (UTC)          (F)  (DEG/KT/KT) (MB)    (MI)
HARRISON CRIB    0000            24  260/ 16/ 21   N/A
BURNHAM HARBOR   0000            24  240/  6/ 11   N/A
CALUMET HARBOR   2300                220/  8/ 15   N/A
BURNS HARBOR     NOT AVBL
MICHIGAN CITY    0000            24  210/  7/  8   N/A
$$

ABBREVIATIONS USED IN REMARKS
   TC - TEMPERATURE IN CELSIUS
  WCI - WIND CHILL INDEX
   HX - HEAT INDEX
  VSB - VISIBILITY
$$



USA.gov is the U.S. government's official web portal to all federal, state and local government web resources and services.